Date String (YYYY-MM-DD hh:mm:ss) UTC,Instrument flags,absolute air pressure of the measurement (hPa),sample flow rate (lpm),inlet stack bypass flow (lpm),air temperature of the measurement (°C),ambient temperature measured by the external sensor (°C),aerosol sample conditioner tube jacket temperature (°C),OPC LED temperature (°C),internal box temperature (°C),relative humidity of the measurement (%),span deviation,mass concentration of particles derived from Lorenz-Mie calculation of OPC scattering (μg/m³),mass concentration of particles derived from Lorenz-Mie calculation of OPC scattering (μg/m³),mass concentration of particles derived from Lorenz-Mie calculation of OPC scattering (μg/m³)
DateTimeUTC,F1_M11,P_M11,Q1_M11,Q2_M11,T1_M11,T2_M11,T3_M11,T4_M11,T5_M11,U1_M11,ZSPAN_M11,X2_M11,X0_M11,X1_M11
2024-05-19 22:00:00,SystemResetWarning,0822.7,5.00,000.00,023.7,023.0,000.0,031.8,025.5,020.5,0000.0,0003.51,0008.45,0002.69
2024-05-19 22:01:00,SystemResetWarning,0823.0,5.01,000.00,023.8,023.3,000.0,031.8,025.6,019.8,0000.0,0003.53,0008.59,0002.69
2024-05-19 22:02:00,SystemResetWarning,0822.9,4.99,000.00,023.9,023.5,000.0,031.8,025.8,019.5,0000.0,0003.52,0008.23,0002.70
2024-05-19 22:03:00,SystemResetWarning,0822.7,4.99,000.00,023.9,023.3,000.0,031.9,025.7,019.5,0000.0,0003.51,0007.83,0002.71
2024-05-19 22:04:00,SystemResetWarning,0822.6,5.00,000.00,023.7,021.5,000.0,032.0,024.7,019.5,0000.0,0003.48,0007.72,0002.69
2024-05-19 22:05:00,SystemResetWarning,0822.9,5.02,000.00,023.4,020.8,000.0,032.0,024.3,020.0,0000.0,0003.50,0007.59,0002.70
2024-05-19 22:06:00,SystemResetWarning,0822.8,5.01,000.00,023.4,021.3,000.0,031.9,024.6,020.2,0000.0,0003.50,0007.03,0002.70
2024-05-19 22:07:00,SystemResetWarning,0822.7,4.99,000.00,023.4,021.7,000.0,031.8,024.8,020.2,0000.0,0003.52,0006.86,0002.69
2024-05-19 22:08:00,SystemResetWarning,0822.6,5.00,000.00,023.4,022.1,000.0,031.8,025.0,020.2,0000.0,0003.49,0006.63,0002.69
2024-05-19 22:09:00,SystemResetWarning,0822.9,5.01,000.00,023.5,022.4,000.0,031.7,025.2,020.5,0000.0,0003.48,0006.83,0002.69
2024-05-19 22:10:00,SystemResetWarning,0822.9,5.00,000.00,023.6,022.8,000.0,031.7,025.4,021.2,0000.0,0003.51,0007.34,0002.70
2024-05-19 22:11:00,SystemResetWarning,0822.6,5.00,000.00,023.7,023.0,000.0,031.8,025.5,021.1,0000.0,0003.54,0007.46,0002.72
2024-05-19 22:12:00,SystemResetWarning,0822.4,5.00,000.00,023.8,023.3,000.0,031.8,025.6,021.3,0000.0,0003.55,0007.44,0002.74
2024-05-19 22:13:00,SystemResetWarning,0822.4,5.00,000.00,023.9,023.5,000.0,031.8,025.8,020.5,0000.0,0003.57,0008.47,0002.74
2024-05-19 22:14:00,SystemResetWarning,0822.4,4.97,000.00,023.9,022.8,000.0,031.9,025.4,020.4,0000.0,0003.58,0008.62,0002.74
2024-05-19 22:15:00,SystemResetWarning,0822.4,5.01,000.00,023.5,020.9,000.0,032.0,024.4,021.2,0000.0,0003.62,0008.69,0002.75
2024-05-19 22:16:00,SystemResetWarning,0822.4,5.01,000.00,023.3,020.9,000.0,032.0,024.3,021.8,0000.0,0003.63,0008.80,0002.76
2024-05-19 22:17:00,SystemResetWarning,0822.4,5.00,000.00,023.3,021.4,000.0,031.9,024.6,021.1,0000.0,0003.65,0008.92,0002.77
2024-05-19 22:18:00,SystemResetWarning,0822.4,4.99,000.00,023.4,021.8,000.0,031.8,024.9,021.1,0000.0,0003.65,0008.92,0002.77
2024-05-19 22:19:00,SystemResetWarning,0822.4,5.01,000.00,023.4,022.2,000.0,031.8,025.1,020.8,0000.0,0003.61,0008.90,0002.74
2024-05-19 22:20:00,SystemResetWarning,0822.4,5.00,000.00,023.5,022.6,000.0,031.7,025.2,021.2,0000.0,0003.60,0008.79,0002.73
2024-05-19 22:21:00,SystemResetWarning,0822.4,5.00,000.00,023.6,022.9,000.0,031.7,025.4,021.0,0000.0,0003.57,0008.49,0002.75
2024-05-19 22:22:00,SystemResetWarning,0822.4,5.00,000.00,023.7,023.2,000.0,031.8,025.5,020.9,0000.0,0003.60,0008.88,0002.75
2024-05-19 22:23:00,SystemResetWarning,0822.4,4.99,000.00,023.8,023.5,000.0,031.8,025.6,020.6,0000.0,0003.60,0009.01,0002.73
2024-05-19 22:24:00,SystemResetWarning,0822.8,5.00,000.00,023.8,023.0,000.0,031.9,025.4,020.6,0000.0,0003.58,0008.22,0002.72
2024-05-19 22:25:00,SystemResetWarning,0822.5,5.00,000.00,023.5,021.2,000.0,031.9,024.5,021.4,0000.0,0003.55,0007.79,0002.71
2024-05-19 22:26:00,SystemResetWarning,0822.5,5.01,000.00,023.3,020.9,000.0,031.9,024.2,021.2,0000.0,0003.53,0007.77,0002.71
2024-05-19 22:27:00,SystemResetWarning,0822.5,5.02,000.00,023.2,021.4,000.0,031.9,024.5,021.6,0000.0,0003.51,0007.64,0002.71
2024-05-19 22:28:00,SystemResetWarning,0823.0,4.99,000.00,023.3,021.8,000.0,031.8,024.8,021.6,0000.0,0003.49,0007.49,0002.70
2024-05-19 22:29:00,SystemResetWarning,0823.1,5.00,000.00,023.4,022.2,000.0,031.7,025.0,022.1,0000.0,0003.48,0007.53,0002.69
2024-05-19 22:30:00,SystemResetWarning,0822.6,5.00,000.00,023.4,022.5,000.0,031.7,025.1,022.6,0000.0,0003.51,0008.57,0002.69
2024-05-19 22:31:00,SystemResetWarning,0822.7,4.99,000.00,023.5,022.9,000.0,031.7,025.3,021.1,0000.0,0003.53,0009.23,0002.69
2024-05-19 22:32:00,SystemResetWarning,0822.7,4.99,000.00,023.6,023.1,000.0,031.7,025.5,021.0,0000.0,0003.55,0009.34,0002.68
2024-05-19 22:33:00,SystemResetWarning,0822.8,5.00,000.00,023.7,023.4,000.0,031.7,025.6,021.0,0000.0,0003.50,0008.87,0002.67
2024-05-19 22:34:00,SystemResetWarning,0822.7,5.01,000.00,023.8,023.5,000.0,031.8,025.7,021.0,0000.0,0003.46,0008.59,0002.65
2024-05-19 22:35:00,SystemResetWarning,0822.7,4.99,000.00,023.7,022.4,000.0,031.9,025.1,022.2,0000.0,0003.43,0008.40,0002.63
2024-05-19 22:36:00,SystemResetWarning,0822.7,5.01,000.00,023.4,021.0,000.0,031.9,024.3,021.5,0000.0,0003.44,0008.46,0002.60
2024-05-19 22:37:00,SystemResetWarning,0822.7,5.01,000.00,023.3,021.3,000.0,031.9,024.4,022.3,0000.0,0003.42,0009.26,0002.58
2024-05-19 22:38:00,SystemResetWarning,0822.8,4.99,000.00,023.3,021.7,000.0,031.8,024.7,022.2,0000.0,0003.41,0009.24,0002.56
2024-05-19 22:39:00,SystemResetWarning,0822.7,5.00,000.00,023.4,022.1,000.0,031.7,024.9,021.5,0000.0,0003.42,0009.47,0002.55
2024-05-19 22:40:00,SystemResetWarning,0822.8,4.99,000.00,023.4,022.4,000.0,031.7,025.1,021.5,0000.0,0003.41,0009.63,0002.53
2024-05-19 22:41:00,SystemResetWarning,0822.7,5.00,000.00,023.5,022.8,000.0,031.7,025.3,021.6,0000.0,0003.41,0009.10,0002.50
2024-05-19 22:42:00,SystemResetWarning,0822.8,5.00,000.00,023.6,023.1,000.0,031.7,025.5,021.8,0000.0,0003.39,0009.08,0002.49
2024-05-19 22:43:00,SystemResetWarning,0822.7,4.99,000.00,023.7,023.3,000.0,031.7,025.6,021.5,0000.0,0003.36,0009.02,0002.47
2024-05-19 22:44:00,SystemResetWarning,0822.7,5.00,000.00,023.8,023.5,000.0,031.8,025.7,021.2,0000.0,0003.35,0008.98,0002.46
2024-05-19 22:45:00,SystemResetWarning,0822.8,5.00,000.00,023.8,022.7,000.0,031.9,025.2,020.7,0000.0,0003.35,0009.27,0002.47
2024-05-19 22:46:00,SystemResetWarning,0822.7,5.00,000.00,023.5,021.0,000.0,031.9,024.4,021.1,0000.0,0003.36,0009.45,0002.48
2024-05-19 22:47:00,SystemResetWarning,0822.7,5.02,000.00,023.3,021.1,000.0,031.9,024.4,021.9,0000.0,0003.37,0009.51,0002.50
2024-05-19 22:48:00,SystemResetWarning,0822.7,5.00,000.00,023.3,021.5,000.0,031.8,024.7,021.5,0000.0,0003.40,0008.64,0002.52
2024-05-19 22:49:00,SystemResetWarning,0822.7,4.99,000.00,023.4,021.9,000.0,031.7,024.9,021.7,0000.0,0003.40,0008.67,0002.55
2024-05-19 22:50:00,SystemResetWarning,0822.7,5.00,000.00,023.4,022.3,000.0,031.7,025.1,022.1,0000.0,0003.40,0008.42,0002.57
2024-05-19 22:51:00,SystemResetWarning,0822.7,5.00,000.00,023.5,022.7,000.0,031.7,025.3,022.3,0000.0,0003.41,0008.18,0002.59
2024-05-19 22:52:00,SystemResetWarning,0822.7,5.00,000.00,023.6,023.0,000.0,031.7,025.5,021.3,0000.0,0003.40,0007.72,0002.60
2024-05-19 22:53:00,SystemResetWarning,0822.7,5.01,000.00,023.7,023.3,000.0,031.7,025.6,021.7,0000.0,0003.39,0007.23,0002.61
2024-05-19 22:54:00,SystemResetWarning,0822.7,4.99,000.00,023.8,023.5,000.0,031.8,025.7,021.2,0000.0,0003.40,0007.81,0002.63
2024-05-19 22:55:00,SystemResetWarning,0822.8,4.99,000.00,023.9,023.6,000.0,031.8,025.8,020.8,0000.0,0003.40,0008.48,0002.64
2024-05-19 22:56:00,SystemResetWarning,0822.8,4.99,000.00,023.8,022.1,000.0,031.9,025.0,021.2,0000.0,0003.39,0008.29,0002.66
2024-05-19 22:57:00,SystemResetWarning,0822.8,5.01,000.00,023.4,020.9,000.0,031.9,024.3,022.2,0000.0,0003.43,0008.28,0002.66
2024-05-19 22:58:00,SystemResetWarning,0822.6,5.02,000.00,023.3,021.3,000.0,031.9,024.5,022.0,0000.0,0003.44,0008.35,0002.68
2024-05-19 22:59:00,SystemResetWarning,0822.6,4.99,000.00,023.4,021.7,000.0,031.8,024.8,021.9,0000.0,0003.44,0008.36,0002.68
